[[{"header":{"parameterUnit":"m.s-1","parameterCategory":1,"la1":30.2991,"la2":30.254,"lo1":-89.0895,"lo2":-89.0444,"dy":0.0017,"dx":0.0017,"nx":28,"ny":28,"refTime":"2025-11-14T03:00:00:Z","depth":0,"parameterNumber":2,"parameterNumberName":"U-component_of_WINDS"},"data":[0,0,0,0,0,0,0,0,0,0,0,0,0,0,0,0,0,0,0,0,0,0,0,0,0,0,0,0,0,0,0,0,0,0,0,0,0,0,0,0,0,0,0,0,0,0,0,0,0,0,0,0,0,0,0,0,0,0,1.4992,1.4993,0,1.5113,1.5114,1.5116,1.5103,1.5102,1.51,1.5098,1.5228,1.5233,1.5239,0,0,0,0,0,0,0,0,0,0,0,0,0,1.4754,1.4758,1.4991,1.4993,1.4995,1.5113,1.5114,1.5116,1.5104,1.5101,1.5099,1.5097,1.5226,1.5233,1.5239,0,0,0,0,0,0,0,0,0,0,0,0,0,1.4865,1.476,1.4991,1.5003,1.5005,1.5112,1.5114,1.5116,1.5104,1.5101,1.5099,1.5096,1.5224,1.5232,1.524,1.5346,0,0,1.5264,1.5267,0,0,0,0,0,0,0,0,1.4858,1.4873,1.4999,1.5002,1.5005,1.509,1.5078,1.5194,1.5105,1.5067,1.5098,1.5094,1.5185,1.5196,1.5225,1.5352,1.5357,1.5265,1.5269,1.5273,1.5275,0,0,0,0,0,0,0,1.4851,1.4868,1.504,1.5001,1.5004,1.5003,1.5016,1.51,1.5141,1.507,1.5069,1.5083,1.5186,1.5218,1.5228,1.5359,1.5264,1.5271,1.5276,1.5279,1.5578,1.5581,0,0,0,0,0,0,1.484,1.4862,1.5036,1.5043,1.4923,1.501,1.5024,1.5066,1.514,1.5148,1.5086,1.5082,1.5206,1.5219,1.5233,1.536,1.5273,1.528,1.5285,1.5574,1.5578,1.5582,0,0,0,0,0,0,1.4834,1.4855,1.5031,1.4952,1.4975,1.5017,1.5064,1.5069,1.5101,1.5152,1.5159,1.511,1.5204,1.5222,1.5317,1.5364,1.5284,1.5291,1.5571,1.5576,1.558,1.5616,0,0,0,0,0,0,1.4828,1.4853,1.4893,1.4953,1.4979,1.5112,1.5067,1.5074,1.5114,1.5111,1.5177,1.5185,1.5203,1.5305,1.5325,1.5374,1.5297,1.5567,1.5573,1.5578,1.5611,1.5622,1.5631,0,0,0,0,0,1.4819,1.49,1.4895,1.4916,1.5029,1.5115,1.5129,1.5147,1.5118,1.5158,1.5191,1.5183,1.5356,1.5315,1.5337,1.5389,1.5564,1.5571,1.5578,1.5607,1.562,1.5631,0,0,0,0,0,0,1.4847,1.4908,1.4903,1.5006,1.5055,1.5112,1.5164,1.516,1.522,1.5215,1.5236,1.5251,1.5346,1.5378,1.5331,1.5495,1.5456,1.5468,1.547,1.5483,1.5493,1.5483,1.5303,0,0,0,0,0,1.4864,1.4927,1.4978,1.5064,1.5088,1.5122,1.516,1.5169,1.5221,1.5243,1.5282,1.5335,1.54,1.5444,1.5508,1.5616,1.563,1.5662,1.5672,1.568,1.569,1.5748,1.5763,1.5605,1.5605,1.5605,0,0,1.4903,1.4944,1.4983,1.507,1.5109,1.5175,1.514,1.5211,1.526,1.5254,1.5345,1.5376,1.5436,1.5538,1.5585,1.5567,1.5737,1.5689,1.5695,1.5701,1.5757,1.5772,1.5785,1.561,1.5609,1.5609,0,0,1.5004,1.5042,1.5116,1.5156,1.5214,1.5236,1.5253,1.5311,1.5331,1.5422,1.5418,1.5478,1.5592,1.5634,1.5671,1.5787,1.5782,1.5808,1.586,1.5916,1.5928,1.5939,1.5979,1.5994,1.5818,1.5818,1.5818,0,1.5044,1.5141,1.5156,1.5227,1.5266,1.5261,1.5337,1.5375,1.5452,1.5479,1.5458,1.5599,1.564,1.575,1.5778,1.5808,1.5829,1.58,1.5925,1.5936,1.5947,1.5985,1.6001,1.582,1.582,1.582,1.582,0,1.5187,1.5254,1.5308,1.5379,1.5424,1.5498,1.5524,1.5568,1.5573,1.5597,1.569,1.5738,1.5811,1.5838,1.5845,1.595,1.5936,1.592,1.5881,1.5964,1.6001,1.6016,1.5824,1.5823,1.5822,1.5822,0,0,1.531,1.5387,1.5406,1.5438,1.5502,1.5555,1.5628,1.5697,1.5733,1.5787,1.5849,1.5944,1.5929,1.597,1.5982,1.6031,1.6118,1.6008,1.601,1.6026,1.6235,1.6246,1.6263,1.6115,1.6118,1.6121,1.623,0,1.5417,1.5544,1.5559,1.5672,1.5734,1.573,1.5794,1.584,1.5865,1.5922,1.595,1.6017,1.5992,1.6016,1.6065,1.6097,1.616,1.609,1.6173,1.6176,1.6157,1.6282,1.6295,1.6395,1.6244,1.6247,1.6248,0,1.5558,1.5613,1.5732,1.5785,1.5812,1.5868,1.5932,1.5986,1.6039,1.6054,1.6099,1.6103,1.618,1.6138,1.6244,1.6195,1.6231,1.6252,1.6256,1.6264,1.6216,1.6292,1.6428,1.6442,1.6271,1.627,1.6268,0,1.5634,1.5737,1.5821,1.5849,1.5914,1.5954,1.5983,1.6033,1.6072,1.6129,1.6155,1.622,1.6256,1.6306,1.6329,1.6297,1.6433,1.6394,1.6447,1.6446,1.6475,1.6473,1.6617,1.65,1.65,1.6499,1.6499,0,1.5751,1.5824,1.5856,1.5907,1.5989,1.6006,1.6086,1.6114,1.6159,1.6216,1.6218,1.6272,1.6299,1.6358,1.6376,1.646,1.6477,1.6491,1.6495,1.649,1.6488,1.6513,1.6506,1.6503,1.6502,1.6502,1.6501,0,1.5849,1.5873,1.5964,1.6017,1.6032,1.609,1.6136,1.6187,1.621,1.6283,1.6301,1.6339,1.6408,1.6435,1.6521,1.6533,1.6629,1.6628,1.661,1.6611,1.6662,1.6656,1.6826,1.6848,1.6718,1.6719,1.672,0,1.5921,1.5976,1.6035,1.6072,1.6102,1.6163,1.6203,1.6222,1.6264,1.6327,1.637,1.6438,1.6494,1.6605,1.664,1.6706,1.6705,1.676,1.6715,1.6708,1.6704,1.67,1.6705,1.6768,1.677,1.6771,1.6772,0,1.6046,1.6055,1.6111,1.6172,1.6218,1.6268,1.6316,1.6347,1.6374,1.6421,1.649,1.6533,1.6618,1.6686,1.6753,1.6784,1.6783,1.6786,1.6801,1.6796,1.6783,1.6789,1.6631,1.6782,1.6781,1.678,1.6779,1.6779,1.6132,1.618,1.6228,1.6291,1.6328,1.6373,1.6422,1.6451,1.6508,1.6578,1.6586,1.666,1.6711,1.68,1.6834,1.6893,1.6879,1.6902,1.6908,1.6912,1.6915,1.6774,1.6906,1.6906,1.6906,1.6905,1.6905,0,1.6256,1.6286,1.6343,1.6409,1.6458,1.645,1.6503,1.6545,1.6609,1.6656,1.671,1.6789,1.6854,1.6894,1.696,1.7,1.7001,1.7016,1.7013,1.702,1.6925,1.6904,1.7014,1.7014,1.7014,1.7014,1.7014,1.7014,1.6326,1.6406,1.6421,1.652,1.6551,1.6621,1.6652,1.6693,1.673,1.6817,1.6871,1.6896,1.694,1.7009,1.7069,1.7079,1.7103,1.7119,1.7128,1.7038,1.7027,1.7016,1.6997,1.7125,1.7125,1.7218,1.7219,1.722]},{"header":{"parameterUnit":"m.s-1","parameterCategory":1,"la1":30.2991,"la2":30.254,"lo1":-89.0895,"lo2":-89.0444,"dy":0.0017,"dx":0.0017,"nx":28,"ny":28,"refTime":"2025-11-14T03:00:00:Z","depth":0,"parameterNumber":3,"parameterNumberName":"V-component_of_WINDS"},"data":[0,0,0,0,0,0,0,0,0,0,0,0,0,0,0,0,0,0,0,0,0,0,0,0,0,0,0,0,0,0,0,0,0,0,0,0,0,0,0,0,0,0,0,0,0,0,0,0,0,0,0,0,0,0,0,0,0,0,2.6467,2.6466,0,2.6394,2.6393,2.6392,2.6342,2.6341,2.6341,2.634,2.6263,2.6261,2.6259,0,0,0,0,0,0,0,0,0,0,0,0,0,2.656,2.6558,2.6467,2.6466,2.6466,2.6394,2.6393,2.6392,2.6342,2.6341,2.6341,2.634,2.6263,2.6261,2.6259,0,0,0,0,0,0,0,0,0,0,0,0,0,2.6506,2.6558,2.6468,2.6432,2.6428,2.6394,2.6393,2.6392,2.6342,2.6341,2.6341,2.634,2.6264,2.6261,2.6259,2.6254,0,0,2.6251,2.625,0,0,0,0,0,0,0,0,2.6509,2.6503,2.6438,2.6434,2.643,2.6376,2.6397,2.6346,2.6342,2.6374,2.634,2.634,2.6301,2.6295,2.6283,2.6251,2.6247,2.6251,2.6249,2.6248,2.6247,0,0,0,0,0,0,0,2.6513,2.6506,2.6438,2.6437,2.6432,2.6418,2.641,2.6387,2.6341,2.6371,2.6368,2.636,2.6298,2.6285,2.628,2.6246,2.6251,2.6249,2.6247,2.6246,2.6202,2.6203,0,0,0,0,0,0,2.6523,2.6509,2.644,2.6436,2.6469,2.6417,2.6408,2.6394,2.6342,2.6333,2.636,2.6358,2.629,2.6283,2.6277,2.6266,2.6248,2.6246,2.6244,2.6202,2.6202,2.6203,0,0,0,0,0,0,2.6525,2.6517,2.6443,2.6471,2.6461,2.6416,2.6401,2.6393,2.638,2.6333,2.6325,2.6355,2.6289,2.6281,2.626,2.6263,2.6245,2.6242,2.6202,2.6202,2.6203,2.6245,0,0,0,0,0,0,2.6528,2.6518,2.6517,2.6472,2.646,2.6429,2.6401,2.6392,2.6376,2.6371,2.6326,2.6318,2.6288,2.6264,2.6257,2.6259,2.624,2.6201,2.6202,2.6202,2.6243,2.6246,2.625,0,0,0,0,0,2.6531,2.6532,2.6518,2.6509,2.6458,2.6429,2.6422,2.6388,2.6376,2.6373,2.6343,2.632,2.6264,2.6262,2.6254,2.6255,2.6201,2.6202,2.6202,2.6241,2.6246,2.625,0,0,0,0,0,0,2.6579,2.6526,2.6509,2.6495,2.6467,2.642,2.6416,2.6394,2.6368,2.6365,2.6323,2.6313,2.6296,2.6273,2.6272,2.6246,2.6229,2.6228,2.6261,2.6265,2.6269,2.6274,2.6238,0,0,0,0,0,2.6588,2.657,2.6524,2.6516,2.6503,2.6462,2.6449,2.6425,2.6393,2.6381,2.6349,2.6319,2.6294,2.6278,2.6253,2.6239,2.6227,2.6236,2.6239,2.6242,2.6242,2.623,2.6232,2.6206,2.6206,2.6206,0,0,2.6606,2.6575,2.6566,2.6525,2.65,2.6481,2.6453,2.6434,2.6419,2.6378,2.6355,2.6331,2.6294,2.6275,2.6266,2.6256,2.6246,2.6243,2.6246,2.6244,2.6231,2.6233,2.6236,2.6206,2.6206,2.6206,0,0,2.6629,2.6604,2.6594,2.6569,2.6532,2.6505,2.6502,2.6459,2.6441,2.6418,2.6386,2.6366,2.6325,2.6299,2.628,2.6291,2.6267,2.6284,2.6302,2.629,2.6292,2.6294,2.6295,2.6297,2.6284,2.6284,2.6284,0,2.6655,2.6627,2.6591,2.6574,2.6556,2.6518,2.6505,2.6483,2.644,2.6427,2.6417,2.6363,2.6335,2.6309,2.6311,2.6298,2.6292,2.6288,2.6295,2.6297,2.6297,2.6298,2.6299,2.6286,2.6286,2.6285,2.6285,0,2.666,2.664,2.6636,2.6595,2.6576,2.6562,2.6522,2.6507,2.6485,2.6458,2.6433,2.6398,2.6364,2.6356,2.6334,2.6325,2.632,2.6304,2.6286,2.6303,2.6302,2.6303,2.6289,2.6288,2.6287,2.6287,0,0,2.6711,2.6649,2.6648,2.6628,2.6583,2.6566,2.6549,2.6516,2.6503,2.6474,2.6456,2.6421,2.6404,2.6383,2.6357,2.6348,2.6355,2.6331,2.633,2.6335,2.634,2.6352,2.6354,2.6339,2.6339,2.6339,2.6343,0,2.6725,2.6693,2.666,2.6639,2.6618,2.6581,2.6566,2.6535,2.6509,2.6487,2.6457,2.6432,2.6413,2.64,2.6389,2.6357,2.6355,2.6356,2.632,2.632,2.633,2.6354,2.6367,2.6372,2.6343,2.6343,2.6343,0,2.6738,2.671,2.6687,2.6642,2.6633,2.662,2.6585,2.6565,2.6529,2.651,2.6486,2.6458,2.6435,2.6421,2.6387,2.6388,2.6372,2.6353,2.6353,2.6347,2.6332,2.6347,2.6373,2.6374,2.6343,2.6343,2.6343,0,2.6774,2.6731,2.6711,2.6695,2.6644,2.6635,2.6612,2.6576,2.6557,2.6527,2.6514,2.6481,2.6463,2.6437,2.64,2.6393,2.6369,2.6352,2.6351,2.6352,2.6347,2.6348,2.637,2.6339,2.6339,2.6339,2.6339,0,2.6792,2.6779,2.6727,2.6714,2.6698,2.6659,2.6643,2.6617,2.6584,2.6565,2.6531,2.6512,2.6466,2.6441,2.6412,2.6387,2.6379,2.6362,2.6354,2.6364,2.6366,2.6352,2.635,2.6339,2.6339,2.6339,2.6339,0,2.683,2.6795,2.677,2.6723,2.671,2.67,2.6658,2.6644,2.6615,2.6591,2.6582,2.6537,2.6506,2.6467,2.6424,2.6404,2.6382,2.6371,2.6394,2.6389,2.639,2.639,2.6402,2.6401,2.6373,2.6373,2.6374,0,2.6843,2.6832,2.6784,2.6769,2.6748,2.6724,2.6705,2.6665,2.6646,2.6603,2.6593,2.656,2.6531,2.6483,2.6445,2.6411,2.6398,2.6404,2.6392,2.6402,2.6395,2.6396,2.6394,2.6407,2.6408,2.6408,2.6409,0,2.687,2.6853,2.6827,2.6795,2.6773,2.6746,2.6717,2.6706,2.666,2.664,2.6608,2.6586,2.6542,2.6508,2.6469,2.6443,2.6417,2.6413,2.641,2.642,2.6433,2.6424,2.6401,2.6412,2.6412,2.6412,2.6411,2.6411,2.6894,2.6882,2.6845,2.6817,2.6792,2.6765,2.6748,2.6717,2.6691,2.6653,2.663,2.6599,2.656,2.6505,2.6481,2.6454,2.6444,2.6441,2.644,2.644,2.6442,2.6439,2.6447,2.6446,2.6446,2.6446,2.6446,0,2.6917,2.6892,2.6867,2.6827,2.6805,2.6784,2.675,2.6732,2.6705,2.6672,2.6644,2.6607,2.6574,2.6533,2.6496,2.6482,2.6469,2.6474,2.6474,2.6468,2.6454,2.6459,2.6485,2.6485,2.6485,2.6485,2.6485,2.6485,2.6926,2.6904,2.6882,2.6845,2.6819,2.679,2.6772,2.6746,2.6719,2.6679,2.6652,2.6626,2.6589,2.6549,2.6517,2.6505,2.6492,2.65,2.6485,2.6473,2.6469,2.6466,2.647,2.6498,2.6498,2.6501,2.6501,2.6501]}]]